Вернуться в каталог

OPS 4682 DEB

АктивенPO
NORAD 38404·DEBRIS·🇺🇸 United States

Запущен Apr 3, 1965 с Vandenberg Space Force Base

Loading…

Ближайшие Пролёты (ближайшие 24 часа)

TLE

СвежийSource: Space-Track

Эпоха: Sep 14, 2026, 06:35 UTC

1 38404U 65027DH  26257.27494690 -.00000177  00000-0 -61604-3 0  9999
2 38404  90.2483   8.3128 0021195  72.2682 288.0751 12.99776419676391

Отслеживайте OPS 4682 DEB в реальном времени с AllMySat

Download on the App Store